Location: Newark
(16.3678°N, 77.8722°E)
Time: 05:29:54
(UTC+00:00)

Transit 2A - Visible Passes

Search period start: 14 December 2019 00:00
Search period end: 24 December 2019 00:00
Orbit: 602 x 957 km, 66.7° (Epoch: 12 December)

Date Brightness Start Highest point End Pass type
(mag) Time Alt. Az. Time Alt. Az. Time Alt. Az.
14 Dec 8.0 22:50:50 10° SSE 22:55:08 25° ESE 22:59:07 10° NE visible
15 Dec 7.0 00:34:17 10° WSW 00:38:04 20° WNW 00:41:37 10° NNW visible
15 Dec 8.7 22:18:08 10° SE 22:21:02 15° ESE 22:23:48 10° ENE visible
15 Dec 6.4 23:59:16 10° SW 00:03:57 34° WNW 00:08:16 10° N visible
16 Dec 6.6 23:31:43 35° N 23:31:43 35° N 23:34:33 10° N visible
